Regional Weather Roundup
Issued by NWS Glasgow, MT

Home | Current Version | Previous Version | Text Only | Print | Product List | Glossary On
Versions: 1 2 3 4 5 6 7 8 9 10 11 12 13 14 15 16 17 18 19 20 21 22 23 24 25 26 27 28
000
ASUS45 KGGW 271715
RWRGGW
HOURLY REGIONAL WEATHER ROUNDUP FOR NORTHEAST MONTANA
NATIONAL WEATHER SERVICE GLASGOW MONTANA
1100 AM MDT THU JUL 27 2017

NOTE: "FAIR" INDICATES FEW OR NO CLOUDS BELOW 12,000 FEET WITH NO
SIGNIFICANT WEATHER AND/OR OBSTRUCTIONS TO VISISBILITY.

NORTHEAST MONTANA


CITY           SKY/WX    TMP DP  RH WIND       PRES   REMARKS
GLASGOW        CLOUDY    79  53  40 SE20      30.00S
PLENTYWOOD       N/A     72  57  59 SE12G20     N/A
WOLF POINT     CLOUDY    82  55  39 SE14G24   30.02R
JORDAN           N/A     80  47  31 W14G24    29.99F
WINNETT          N/A     78  55  44 SE8         N/A
SIDNEY         PTSUNNY   78  58  49 E8        30.08R
GLENDIVE       MOSUNNY   82  57  42 E18       30.05S
MALTA            N/A     81  51  35 NE6G17      N/A
SCOBEY           N/A     77  52  41 SE13G24   30.03

FORT PECK REPORTS


CITY           SKY/WX    TMP DP  RH WIND       PRES   REMARKS
FORT PECK        N/A     77  56  48 E20         N/A
THE PINES        N/A     81  51  35 S3          N/A

SOUTHEAST MONTANA


CITY           SKY/WX    TMP DP  RH WIND       PRES   REMARKS
BILLINGS       MOSUNNY   81  51  35 SW5       30.06F
MILES CITY     CLOUDY    83  55  38 S12       30.01R
BAKER          SUNNY     88  52  29 SE17G25   30.07S
LIVINGSTON     SUNNY     83  48  29 SW18G25   30.13S

CENTRAL MONTANA


CITY           SKY/WX    TMP DP  RH WIND       PRES   REMARKS
HAVRE          SUNNY     84  46  26 S6        29.98S
LEWISTOWN      CLOUDY    81  48  31 NE7       30.08S
GREAT FALLS    CLOUDY    79  44  28 W8        30.05S
CUT BANK       MOSUNNY   85  33  15 NW8       30.05S
HELENA         MOSUNNY   79  49  34 VRB7      30.10F
BUTTE          SUNNY     75  43  31 N5        30.22F
BOZEMAN        SUNNY     77  53  43 NW5       30.15F

WESTERN MONTANA


CITY           SKY/WX    TMP DP  RH WIND       PRES   REMARKS
MISSOULA       MOSUNNY   74  52  46 SE5       30.10F
KALISPELL      NOT AVBL

NORTH DAKOTA


CITY           SKY/WX    TMP DP  RH WIND       PRES   REMARKS
WILLISTON      LGT RAIN  66  60  81 S6        30.08F
DICKINSON      MOSUNNY   81  61  50 E17G23    30.12R
MINOT          CLOUDY    76  57  51 S6        30.11S
BISMARCK       CLOUDY    76  60  57 E7        30.14R

SOUTHERN SASKATCHEWAN


CITY           SKY/WX    TMP DP  RH WIND       PRES   REMARKS
REGINA         MOSUNNY   81  57  44 SE15      30.04F
MOOSE JAW      CLOUDY    81  61  50 E5        30.02F
ESTEVAN        PTSUNNY   77  59  53 SW14      30.08F
SWIFT CURRENT  SUNNY     88  46  23 SE17G24   29.99F





USA.gov is the U.S. government's official web portal to all federal, state and local government web resources and services.